Regional Weather Roundup
Issued by NWS

Home | Current Version | Previous Version | Text Only | Print | Product List | Glossary Off
Versions: 1 2 3 4 5 6 7 8 9 10 11 12 13 14 15 16 17 18 19 20 21 22 23 24 25 26 27 28 29 30 31 32 33 34 35 36 37 38 39 40 41 42 43 44 45 46 47 48 49 50

709
ASUS45 KSLC 081610
RWRUT

UTAH REGIONAL WEATHER ROUNDUP
NATIONAL WEATHER SERVICE SALT LAKE CITY UT
900 AM MST MON FEB 08 2016

UTZ001>011-023>025-081700-

NORTHERN UTAH

CITY           SKY/WX    TMP DP  RH WIND       PRES   REMARKS
BRIGHAM CITY     N/A     12   9  87 CALM      30.71R VSB 1/2
DUGWAY         PTSUNNY   25  22  90 S3        30.70R
HILL AFB       MOSUNNY   24  14  63 SE10      30.67R WCI  14
LOGAN          FOG       10   9  95 CALM      30.73R VSB<1/4
OGDEN          MOSUNNY   25  18  74 S7        30.68R WCI  17
PROVO AIRPORT  MOSUNNY   14  12  92 CALM      30.72R FOG
SALT LAKE CITY PTSUNNY   27  21  78 SE8       30.70R WCI  19
VERNAL         CLOUDY    15   9  76 CALM      30.63R
WENDOVER       MOSUNNY   25  19  80 SW5       30.69F WCI  19
HEBER CITY     MOSUNNY   12  10  92 CALM      30.69R FOG
WEST JORDAN    SUNNY     27  21  80 S7        30.70R WCI  19

$$

UTZ012>022-026-027-081700-

SOUTHERN/CENTRAL UTAH

CITY           SKY/WX    TMP DP  RH WIND       PRES   REMARKS
BLANDING       SUNNY     29  17  60 CALM      30.60R
BRYCE CANYON   MOSUNNY   12   5  73 W7        30.60R WCI   1
CEDAR CITY     MOSUNNY   18  14  84 N5        30.62R WCI  11
DELTA          PTSUNNY    4   1  88 CALM      30.71R
HANKSVILLE     PTSUNNY   18  16  93 CALM      30.66R
MILFORD        PTSUNNY   11  32 100 SE5       30.67R WCI   3
MOAB/CYNLANDS  MOSUNNY   18  17  96 CALM      30.60S
PRICE          MOSUNNY   27  16  63 CALM      30.56R
ST GEORGE      MOSUNNY   39  23  52 E5        30.57R
KANAB          SUNNY     39  27  60 NE6       30.55F WCI  35

$$

REGIONAL REPORTS     COLORADO/ARIZONA

CITY           SKY/WX    TMP DP  RH WIND       PRES   REMARKS
CRAIG, CO      CLOUDY    -1  -4  87 VRB3      30.61R
GRAND JUNCTION CLOUDY    20  16  84 SW3       30.61R
RIFLE          CLOUDY    15   9  76 E3        30.63R
MONTROSE       CLOUDY    19  12  74 SE3       30.61S
CORTEZ         CLOUDY    27  17  66 E3        30.50R
PAGE, AZ       SUNNY     35  26  69 CALM      30.58R
GRAND CANYON   SUNNY     46  14  27 VRB3      30.51R
KINGMAN        SUNNY     46  22  38 NE10      30.42R
FLAGSTAFF      SUNNY     41  14  33 NE20G29   30.50R

$$

REGIONAL REPORTS    NEVADA/IDAHO/WYOMING

CITY           SKY/WX    TMP DP  RH WIND       PRES   REMARKS
LAS VEGAS, NV  SUNNY     52  24  33 N9        30.43S
ELY            MOSUNNY    7   4  87 S13       30.66R WCI  -9
ELKO           PTSUNNY   10   4  76 E5        30.70S WCI   2
POCATELLO, ID  CLOUDY    24  23  96 NE6       30.73R FOG     WCI  17
BURLEY         CLOUDY    27  26  96 NE10      30.68R FOG     WCI  17
EVANSTON, WY   CLOUDY    25  14  63 CALM      30.62S
ROCK SPRINGS   NOT AVBL

$$




USA.gov is the U.S. government's official web portal to all federal, state and local government web resources and services.